User: anonymous
Location: Mount Tamalpais State Park
(37.9108°N, 122.6128°W)
Time: 19:13:43
(UTC-07:00)
Language:

Cosmos 1814 Rocket - Orbit

View from above orbital plane
View from above orbital plane
View from above satellite
View from above satellite

Ground track
Ground track

The orbit data is extracted from the following two-line orbital elements,

1 17304U 87006B   14292.82297399  .00000290  00000-0  10519-3 0  2581
2 17304 074.0602 075.8243 0029241 159.7561 306.6792 14.37360019453725
Epoch (UTC): 19 October 2014 19:45:04
Eccentricity: 0.0029241
inclination: 74.0602°
perigee height: 746 km
apogee height: 788 km
right ascension of ascending node: 75.8243°
argument of perigee: 159.7561°
revolutions per day: 14.37360019
mean anomaly at epoch: 306.6792°
orbit number at epoch: 45372

The dashed part of the orbit path shows where the satellite is in the earth's shadow,  

DLR